Theta_e
324 323 324 326 319 319 324 324 323 324 333 332 330 328 329 331 332 331 333 334 335 335 333 321 318 315 331 332 329 324 316 312 308 309 309 309 309 315 320 321 326 324 326 316 308 308 308 308 308
325 323 325 325 318 320 318 319 322 322 328 335 332 330 331 331 333 335 335 335 335 335 331 319 330 325 326 331 327 312 311 309 309 309 309 309 311 316 316 317 319 323 322 316 310 310 310 310 310
324 323 325 320 319 318 318 319 322 328 334 335 336 334 334 334 334 335 334 335 336 334 323 327 330 324 324 329 327 319 310 308 309 309 309 309 309 310 311 312 321 321 316 312 313 315 315 315 316
324 323 323 322 322 319 318 319 319 323 336 335 336 334 333 334 334 335 333 336 335 329 323 330 331 322 313 322 319 314 308 308 308 309 309 309 310 310 311 312 313 317 317 320 319 322 323 324 321
323 322 322 323 322 320 317 320 320 322 330 334 336 334 333 334 334 334 334 335 333 325 329 332 332 329 321 310 310 309 307 308 308 308 309 309 310 311 312 314 318 324 325 324 325 325 325 324 324
323 320 321 323 322 320 319 320 321 321 326 333 335 332 333 334 334 334 334 333 330 327 332 333 333 330 315 308 308 307 307 308 308 309 309 310 311 314 316 322 324 325 325 324 325 326 326 326 326
320 318 321 321 321 321 320 322 319 319 323 331 335 330 333 333 333 333 333 332 328 326 329 333 332 321 309 307 307 307 307 308 309 309 311 313 315 318 320 323 324 324 325 325 326 326 326 325 325
321 317 320 319 323 323 321 322 323 323 326 333 335 333 332 332 332 332 332 332 328 327 328 328 323 311 308 307 307 307 308 309 310 312 314 317 319 321 323 324 324 324 325 326 327 326 326 325 324
320 319 324 321 321 321 321 321 322 326 332 334 335 334 333 332 331 333 332 331 329 326 324 320 314 313 308 308 308 308 309 310 311 314 318 321 323 324 324 325 326 326 325 326 326 326 325 323 323
319 318 323 318 318 320 321 320 322 323 331 334 335 335 334 334 332 332 333 332 329 327 321 317 315 321 311 308 308 309 310 312 314 317 321 324 323 326 325 327 327 326 326 325 326 326 325 321 321
319 321 321 320 321 321 321 320 322 322 321 324 324 324 332 334 332 332 333 332 330 326 318 316 323 326 323 309 309 310 311 313 316 319 319 319 324 324 326 326 326 325 324 324 325 326 321 318 318
317 319 319 320 321 321 320 321 320 321 322 323 323 325 328 334 333 332 331 331 329 326 322 320 326 327 325 319 310 311 312 314 317 321 322 323 324 323 324 325 324 324 324 326 325 322 319 313 314
312 315 314 314 313 316 322 322 321 321 322 322 323 323 327 331 334 332 331 331 330 324 323 325 329 327 325 322 310 312 313 316 320 322 323 323 324 324 324 325 324 324 326 325 322 319 314 310 309
311 312 311 311 311 312 313 319 322 322 323 322 322 323 323 329 333 333 331 331 330 327 325 325 329 327 325 323 315 312 313 316 322 322 322 322 322 323 323 324 323 324 324 322 317 312 308 307 308
311 311 308 309 310 312 317 318 319 321 323 323 323 323 325 329 331 333 332 331 329 328 326 322 328 329 326 325 323 313 314 321 323 321 320 321 322 322 323 323 323 325 322 318 311 308 306 305 305
308 308 310 308 308 312 317 309 313 318 320 323 323 323 324 328 331 332 332 331 329 328 327 324 327 329 326 324 323 316 315 323 321 320 321 321 322 323 323 323 323 322 319 311 307 305 302 300 303
304 303 306 307 308 308 315 314 314 316 318 321 326 326 328 331 329 331 332 331 330 328 328 327 328 328 325 323 321 319 317 323 322 321 321 322 323 323 322 322 322 319 313 307 303 301 299 299 302
300 304 305 305 306 306 307 308 309 312 315 317 321 324 324 327 329 327 330 331 330 329 328 327 328 327 326 321 322 321 318 325 322 321 322 323 324 323 323 321 319 315 307 303 300 299 299 298 300
305 306 305 304 304 306 307 308 307 308 311 311 315 317 321 326 327 328 326 329 330 329 329 327 328 325 324 323 324 323 320 324 321 322 324 326 325 323 323 318 315 307 302 300 299 298 298 298 300
303 304 304 304 304 305 306 307 307 308 309 310 310 314 316 318 325 326 326 326 329 330 329 328 328 326 322 323 325 323 321 323 324 324 326 326 325 322 318 313 308 303 300 298 298 297 298 298 299
303 302 301 302 303 305 305 306 305 306 308 308 309 310 312 315 317 324 325 325 327 329 329 328 327 326 324 325 324 323 320 324 324 325 325 325 323 314 312 307 302 300 298 298 297 297 297 297 299
302 301 301 302 303 305 304 305 305 304 307 309 309 309 311 314 316 320 324 325 326 327 329 329 327 326 325 325 324 323 321 323 324 325 324 323 315 309 304 300 299 298 297 297 297 296 296 295 296
302 302 302 303 305 306 305 307 305 305 308 309 310 311 312 314 315 318 322 324 325 326 328 328 327 326 325 325 323 323 323 322 325 323 321 318 317 306 300 298 297 297 296 296 296 296 295 295 295
301 302 303 304 302 305 303 305 306 305 305 308 308 310 312 314 315 317 319 322 324 325 326 327 326 325 323 322 322 325 324 324 325 321 316 309 307 303 297 296 296 296 296 295 295 295 294 294 294
303 302 299 295 303 304 306 305 307 307 306 306 307 309 313 314 315 317 319 321 322 324 324 326 325 323 323 322 324 324 323 324 324 320 314 311 305 298 296 295 296 295 295 295 295 294 294 294 293
301 300 300 299 304 304 304 303 305 306 307 310 310 310 312 314 315 316 319 320 320 322 324 324 324 324 325 323 324 323 322 324 322 317 309 306 299 296 295 295 295 295 294 294 294 293 293 293 293
303 304 303 306 304 306 301 303 307 308 308 307 309 309 312 314 314 317 317 318 318 315 323 324 324 324 323 324 324 323 323 318 312 308 303 303 297 294 296 297 296 295 295 294 293 292 292 293 293
303 303 305 298 306 305 302 303 310 309 308 306 306 306 312 314 313 314 314 316 316 314 312 321 324 324 322 322 323 321 315 311 308 302 298 295 295 298 297 298 299 295 293 293 292 292 292 292 293
301 304 303 303 303 308 308 308 310 307 305 304 303 304 308 313 312 313 312 311 311 313 313 314 319 321 318 320 317 312 310 307 305 300 298 301 300 302 306 303 294 293 293 292 292 292 292 293 292
302 302 304 306 303 305 306 307 308 307 306 303 300 305 310 310 310 310 310 307 307 309 310 310 314 314 313 315 313 309 308 305 303 300 299 298 303 304 297 294 294 292 292 292 292 292 292 292 291
Wind_Speed
7 7 6 2 3 4 3 6 2 7 5 4 10 6 12 8 6 4 7 21 29 30 27 23 21 24 24 20 17 13 13 11 12 12 13 13 13 12 12 11 11 11 11 11 11 10 10 10 10
7 5 2 1 4 2 5 4 5 3 8 3 4 4 3 4 6 3 16 25 30 29 28 26 24 23 26 20 18 14 13 12 13 13 13 13 12 11 11 11 11 11 10 11 11 11 10 10 9
7 6 3 4 4 5 5 5 3 6 5 2 2 1 2 3 8 8 14 28 32 31 29 27 26 23 26 23 18 14 13 14 15 14 13 12 11 10 10 11 11 10 10 12 11 11 10 10 9
5 3 1 2 7 7 8 2 2 6 3 5 1 3 4 5 5 15 24 30 33 31 30 27 26 22 20 22 18 15 15 15 14 14 13 12 11 11 12 11 11 11 11 10 10 10 9 9 9
4 3 2 3 6 5 4 7 4 2 3 4 6 4 4 7 9 18 29 33 34 32 30 28 25 23 18 18 18 17 16 16 15 14 13 13 12 12 12 12 11 10 9 9 10 10 10 9 9
3 2 1 5 6 5 5 8 6 4 5 5 7 5 3 7 11 21 29 32 31 32 31 28 25 22 18 19 19 19 18 17 16 15 14 14 13 13 12 11 11 10 8 9 9 10 9 8 8
5 3 5 5 4 5 6 9 6 6 7 7 7 7 3 14 13 23 29 31 30 29 30 30 26 21 20 21 21 20 19 18 17 16 16 15 14 13 12 12 11 10 8 8 8 8 6 5 4
5 3 4 6 7 10 6 5 6 6 5 5 9 6 6 19 20 26 31 32 29 30 29 28 25 23 23 22 21 20 19 18 18 18 17 15 14 13 13 11 9 8 7 8 8 5 4 3 2
4 2 10 6 6 6 8 4 9 8 7 7 9 9 6 14 25 30 33 33 33 32 30 29 28 24 22 22 22 21 20 20 20 19 17 15 14 13 11 10 9 8 6 4 4 2 3 3 3
6 4 6 6 6 5 16 12 18 9 8 6 9 16 15 14 31 38 40 41 40 37 34 32 30 26 23 23 23 22 22 22 21 20 18 15 11 9 8 8 9 8 7 3 3 2 5 2 2
4 5 3 2 12 16 18 8 17 9 7 11 15 21 17 20 35 41 43 44 47 43 39 36 33 28 24 23 23 23 23 23 21 19 15 10 12 8 7 8 8 6 5 4 5 4 4 3 4
6 4 7 8 11 14 7 11 6 23 23 25 19 17 18 25 40 44 45 46 48 46 43 40 36 31 27 23 23 23 24 23 20 17 16 14 11 10 10 6 6 6 7 7 5 4 5 4 4
4 6 15 19 24 24 21 21 16 20 21 21 24 23 20 25 38 46 42 37 43 46 44 44 40 34 30 26 25 25 24 22 20 18 16 14 13 12 10 9 8 7 7 6 5 6 5 5 5
8 13 17 16 19 20 20 25 17 3 2 16 24 31 32 30 37 47 46 42 45 47 46 44 42 38 35 31 27 26 24 22 21 18 17 16 14 12 10 10 10 10 9 7 6 6 7 6 6
12 11 12 9 12 8 14 29 30 24 30 33 35 34 30 33 40 50 54 53 49 47 43 45 43 41 39 34 29 26 25 25 22 19 17 17 15 14 13 12 12 11 10 8 8 8 8 7 8
5 3 4 5 13 7 10 37 8 16 26 28 33 37 35 37 42 48 53 53 51 50 44 44 44 43 40 37 34 30 28 28 23 19 20 18 17 16 14 14 13 12 10 9 10 9 8 9 9
4 5 6 7 5 8 9 24 8 14 22 25 25 30 30 34 41 48 52 54 56 52 46 43 46 45 40 38 35 32 31 31 26 22 23 22 18 16 14 14 14 12 11 11 10 9 8 10 11
5 8 8 12 5 19 23 31 16 23 29 18 20 27 33 32 40 46 54 54 54 54 48 44 47 44 40 38 36 32 32 32 28 26 26 22 21 19 17 17 15 12 12 11 10 9 10 11 11
9 13 17 14 14 17 22 28 21 23 20 25 22 28 28 31 40 42 50 51 53 54 52 51 51 46 43 42 41 37 36 35 31 30 26 25 25 23 19 17 14 13 12 10 10 10 11 13 13
8 11 19 17 12 12 19 28 20 16 22 30 32 28 31 33 27 39 50 51 53 56 56 53 54 49 46 44 44 40 37 36 33 30 27 26 25 23 19 16 14 13 12 11 9 9 10 11 14
6 8 17 18 16 15 20 27 23 20 30 35 41 41 39 38 35 37 47 52 55 57 60 60 56 50 47 47 46 41 38 36 35 33 30 27 25 22 19 18 16 14 12 10 9 8 8 10 14
11 12 15 13 10 11 6 19 22 19 21 20 34 40 37 40 36 39 48 52 59 60 59 62 54 55 51 50 49 43 42 42 38 36 33 31 27 22 20 18 15 12 11 10 8 9 9 8 8
11 2 10 15 16 13 18 9 14 8 13 21 18 32 38 44 42 40 47 53 58 61 63 65 58 56 52 50 46 45 41 42 40 39 35 32 29 24 23 18 15 12 10 9 8 7 7 8 6
13 10 15 15 7 9 27 12 15 15 18 19 20 31 39 40 38 41 42 49 56 61 64 65 64 54 51 48 50 48 46 45 43 40 37 34 31 27 22 18 15 12 9 8 7 6 6 6 5
2 7 5 5 2 7 2 3 9 16 12 17 21 27 29 35 34 37 41 45 53 59 64 64 57 52 55 53 52 49 46 43 44 42 39 36 30 25 23 19 15 12 9 7 6 5 4 4 3
11 6 2 5 6 17 14 7 9 6 10 17 20 34 27 31 36 37 38 43 37 52 64 60 57 59 57 56 54 49 45 47 45 44 39 31 28 25 20 15 11 10 9 7 6 5 4 2 1
3 4 6 7 12 11 4 8 7 9 17 20 22 30 23 28 33 34 33 38 41 38 63 63 61 60 59 56 53 48 48 45 42 38 33 28 25 21 17 13 12 8 6 7 6 5 3 1 1
6 4 5 4 5 8 6 6 3 14 22 25 22 17 20 28 24 28 31 33 43 42 37 58 59 58 56 58 54 50 44 37 36 34 34 29 26 23 17 13 9 10 8 8 6 4 3 2 4
4 4 3 4 3 5 8 6 2 9 14 21 24 25 25 24 26 31 25 26 34 41 43 49 56 57 56 52 47 39 35 35 36 35 32 27 22 18 15 13 13 11 9 7 6 5 4 4 6
5 5 3 4 6 8 11 8 4 4 12 15 18 25 13 24 23 23 24 26 30 37 41 38 45 44 42 40 37 36 36 38 39 34 29 24 19 18 17 13 12 12 9 7 7 6 6 7 6
Wind_Direction
321 322 318 313 52 65 243 253 251 317 323 311 159 158 185 166 182 207 172 176 175 176 174 176 171 171 170 180 186 182 168 164 157 147 138 134 129 118 114 105 99 94 87 94 99 97 93 89 86
320 318 269 64 103 149 263 256 263 233 291 127 162 119 139 198 211 193 155 169 176 175 173 170 169 170 174 182 181 169 166 166 157 149 143 138 134 129 121 114 105 97 98 97 93 95 93 88 85
303 304 229 132 146 191 221 221 181 310 195 81 144 322 217 241 207 189 166 167 174 175 173 171 176 177 181 188 190 183 175 169 160 153 147 140 132 128 119 116 106 108 101 102 97 93 89 83 82
303 267 43 123 204 229 199 217 280 347 208 288 236 266 259 220 226 182 171 170 174 175 174 174 180 180 182 192 192 187 180 172 161 152 144 137 131 122 118 114 109 108 102 100 101 95 90 83 84
292 250 214 228 257 279 254 250 262 315 275 211 178 257 253 222 202 178 174 172 174 175 176 178 183 184 186 190 188 184 178 170 163 153 147 140 134 129 125 119 110 100 99 104 99 89 83 84 86
217 153 185 243 242 250 276 263 292 263 257 211 191 173 237 198 191 175 177 176 180 178 179 183 187 189 192 189 185 180 175 170 163 158 152 148 144 137 130 126 124 123 117 112 106 94 86 82 82
178 142 211 216 236 278 247 256 209 250 275 258 220 151 223 195 186 182 179 181 184 182 183 186 189 193 191 186 182 178 174 170 163 158 155 152 146 140 136 134 130 129 123 117 106 87 78 71 71
231 143 207 206 214 258 238 226 229 231 275 281 203 196 213 207 186 189 181 184 188 186 185 190 190 188 187 184 182 178 174 169 163 160 159 155 150 147 142 140 138 125 121 114 94 82 111 102 88
206 229 242 217 189 240 276 240 245 241 239 206 216 246 220 199 188 188 186 186 188 191 192 192 190 186 186 184 180 176 174 171 168 165 159 155 154 154 150 146 137 126 135 125 130 189 311 330 106
199 223 246 187 206 235 262 231 247 244 225 236 242 251 259 218 193 188 190 187 189 192 194 193 190 187 185 185 181 177 176 175 170 166 160 160 161 162 155 145 146 145 143 177 159 254 306 313 143
251 257 259 246 256 258 263 258 248 207 226 237 260 279 265 213 199 193 198 196 194 191 193 192 190 187 187 188 183 181 182 178 177 173 169 180 178 160 178 177 153 164 170 203 235 246 291 255 201
322 301 333 330 329 305 279 294 250 232 241 255 262 270 268 215 203 204 206 202 199 196 194 192 191 190 190 191 193 188 185 182 178 172 172 177 178 183 194 187 166 204 207 209 232 263 267 212 185
244 339 321 317 314 306 291 273 266 256 262 257 264 262 258 236 221 211 206 203 206 198 195 195 190 191 196 192 196 192 188 185 179 174 179 191 193 195 204 213 205 212 206 221 242 257 203 177 184
310 300 303 304 297 289 287 284 271 190 293 262 262 255 254 236 227 216 207 207 212 204 201 197 192 192 196 196 201 196 192 191 185 182 186 193 195 205 212 215 213 216 220 230 248 198 184 194 199
300 303 308 255 252 238 284 272 253 262 263 264 267 266 261 243 229 219 216 214 212 209 203 198 196 195 195 195 203 199 193 187 185 187 194 198 203 210 212 218 220 216 225 233 203 197 204 208 206
315 279 334 322 350 267 204 260 341 279 256 247 249 251 247 243 230 228 221 217 213 209 206 201 196 198 199 199 202 199 193 188 189 199 198 203 210 215 222 225 218 217 224 210 199 206 210 205 203
335 282 286 307 261 286 249 285 345 300 273 263 254 254 247 242 230 222 219 218 214 210 208 203 203 199 201 198 198 196 194 192 193 202 201 208 209 214 221 212 213 220 217 200 205 213 212 204 199
277 282 276 284 305 307 294 287 295 302 292 278 278 263 249 242 228 223 221 217 214 212 207 203 204 199 203 198 194 194 194 193 194 206 212 209 208 213 210 208 213 219 208 207 210 211 206 206 203
267 274 277 278 282 275 269 277 282 280 274 283 270 269 269 248 240 231 223 217 212 211 206 203 201 200 205 200 197 195 195 195 201 207 209 209 209 207 205 209 212 206 204 209 206 204 200 191 193
266 282 287 280 262 256 275 277 278 272 263 266 273 260 256 254 249 230 223 217 215 213 208 204 203 204 205 205 203 202 197 199 205 208 209 208 209 202 203 205 206 203 209 207 200 195 199 198 196
276 261 276 276 285 271 284 280 282 270 253 254 255 254 248 248 244 229 218 217 215 213 209 206 203 207 208 203 204 205 202 203 205 207 205 204 205 197 202 199 197 201 199 205 199 196 201 210 200
280 250 269 277 299 287 177 286 280 280 266 246 245 249 236 238 235 236 216 213 214 212 210 209 205 206 208 205 207 209 207 205 207 208 202 202 200 193 192 192 194 196 194 195 194 193 196 198 207
254 277 275 281 275 281 276 261 290 259 265 247 240 239 229 232 229 228 220 212 213 211 211 209 204 204 205 205 209 210 213 212 214 206 199 196 196 188 190 185 188 188 188 192 186 182 179 181 190
263 303 288 266 252 262 261 235 269 271 257 259 253 247 237 224 224 222 231 211 209 206 206 205 201 198 203 209 211 212 215 214 213 202 196 190 187 186 184 179 180 181 182 184 178 175 167 169 171
87 336 307 327 307 255 11 293 240 295 269 252 260 257 241 223 217 218 213 206 208 204 202 202 197 198 202 208 212 212 216 219 220 203 196 190 182 181 177 171 172 174 178 184 176 171 178 169 162
296 192 235 278 288 291 292 248 258 264 324 327 310 283 247 215 213 217 209 203 209 197 203 199 198 203 204 208 212 211 215 215 213 203 194 181 173 175 169 161 162 169 173 175 175 185 184 165 200
312 241 224 272 258 266 252 286 308 357 347 335 327 313 213 199 209 212 213 203 208 196 199 204 200 204 205 207 209 212 216 213 203 188 172 177 165 164 153 162 168 175 188 188 193 192 185 212 314
206 300 316 328 296 298 276 274 281 339 346 327 313 306 240 203 204 207 213 207 208 205 199 200 203 202 205 204 205 208 207 200 185 173 162 166 161 162 155 167 174 201 194 198 194 204 230 272 313
333 293 297 228 218 290 312 294 1 332 339 323 310 292 282 210 205 219 214 206 204 200 200 194 193 194 199 197 199 198 187 178 170 167 162 163 161 149 158 178 187 193 202 203 209 229 250 279 287
217 271 261 307 302 281 269 276 209 18 355 333 313 302 223 194 200 201 206 199 192 192 189 194 192 192 191 189 187 181 176 172 167 168 157 150 166 165 183 179 193 201 203 213 229 240 252 264 277